Regional Weather Roundup
Issued by NWS

Home | Current Version | Previous Version | Text Only | Print | Product List | Glossary On
Versions: 1 2 3 4 5 6 7 8 9 10 11 12 13 14 15 16 17 18 19 20 21 22 23 24 25 26 27 28 29 30 31 32 33 34 35 36 37 38 39 40 41 42 43 44 45 46 47 48 49 50
000
ASUS43 KMPX 231501
RWRMN
WEATHER ROUNDUP FOR MINNESOTA
NATIONAL WEATHER SERVICE TWIN CITIES/CHANHASSEN MN
900 AM CST THU FEB 23 2017


NOTE: "FAIR" INDICATES FEW OR NO CLOUDS BELOW 12,000 FEET WITH NO
SIGNIFICANT WEATHER AND/OR OBSTRUCTIONS TO VISIBILITY. N/A MEANS
CURRENT SKY AND/OR WEATHER CONDITIONS ARE NOT AVAILABLE.

MNZ060>063-068>070-231600-
   Twin Cities Metro

CITY           SKY/WX    TMP DP  RH WIND       PRES   REMARKS
TWIN CITIES    CLOUDY    32  24  72 N13G22    29.93R WCI  22
ST PAUL        CLOUDY    31  26  82 N13       29.95R WCI  21
CRYSTAL        MOSUNNY   32  23  69 N9        29.92R WCI  24
BLAINE         PTSUNNY   32  27  80 N9        29.92R WCI  24
LAKEVILLE      CLOUDY    30  28  93 N10       29.92R WCI  21
EDEN PRAIRIE   CLOUDY    32  24  72 NE10      29.91R WCI  24
SOUTH ST PAUL  CLOUDY    32  26  79 N8        29.93R WCI  25
LAKE ELMO      CLOUDY    32  28  86 N7        29.92R WCI  26
$$
MNZ001>005-007-008-013>017-022>024-027-028-231600-
   Northwest Minnesota

CITY           SKY/WX    TMP DP  RH WIND       PRES   REMARKS
BEMIDJI        CLOUDY    23  16  74 N12G20    30.00S WCI  11
HALLOCK        CLOUDY    25  21  86 N15       30.07F WCI  12
ROSEAU         CLOUDY    23  16  74 N14       30.05F WCI  11
WARROAD        CLOUDY    21  12  68 NW9       30.06F WCI  11
THIEF RVR FALL   N/A    N/A N/A N/A MISG        N/A
CROOKSTON      CLOUDY    28  23  80 N7        30.05F WCI  21
FOSSTON        CLOUDY    25  19  80 N15       30.03R WCI  12
DETROIT LAKES  CLOUDY    27  21  80 N16G24    29.99F WCI  14
MOORHEAD       CLOUDY    28  21  74 N15       30.03S WCI  17
PARK RAPIDS    CLOUDY    25  16  68 N13       29.97S WCI  14
MAHNOMEN       CLOUDY    26  19  77 N20       30.01R WCI  12
$$
MNZ006-009>011-018-025>026-231600-
   North Central Minnesota

CITY           SKY/WX    TMP DP  RH WIND       PRES   REMARKS
BAUDETTE       CLOUDY    20  11  68 N15       30.02S WCI   6
FLAG ISLAND    CLOUDY    19  10  68 NW18      30.05R WCI   4
INTL FALLS     CLOUDY    22  12  65 NW16      29.99R WCI   8
WASKISH        CLOUDY    21  14  73 N8        30.02F WCI  12
BIG FORK       CLOUDY    23  18  80 NW5       29.99R WCI  17
LONGVILLE      CLOUDY    25  19  80 N9        29.98R WCI  15
GRAND RAPIDS   CLOUDY    23  19  85 N13       29.97S WCI  11
CRANE LAKE     CLOUDY    25  16  68 NW5       29.98S WCI  19
ORR            CLOUDY    25  16  68 NW12      29.93R WCI  14
COOK           CLOUDY    25  18  74 W8        29.95S WCI  16
WALKER         CLOUDY    23  17  77 N10       29.99R WCI  12
$$
MNZ012-019>021-037-231600-
   Northeast Minnesota

CITY           SKY/WX    TMP DP  RH WIND       PRES   REMARKS
DULUTH         CLOUDY    25  21  85 NW13      29.91R WCI  14
ELY            CLOUDY    25  18  74 W10G17    29.92S WCI  15
HIBBING        CLOUDY    22  19  89 NW17      29.94R WCI   8
EVELETH        CLOUDY    24  17  77 N9G20     29.94F WCI  14
DULUTH HARBOR  CLOUDY    30  25  80 N3        29.96S
TWO HARBORS    CLOUDY    30  25  80 NW5       29.90S WCI  25
SILVER BAY     CLOUDY    28  25  86 N8        29.89F WCI  20
GRAND MARAIS     N/A     33  22  63 W5        29.90F WCI  29
G MARAIS ARPRT CLOUDY    27  14  59 NW8G16    29.85S WCI  18
$$
MNZ029>031-032-039>041-046>048-054>057-064-231600-
   West Central Minnesota

CITY           SKY/WX    TMP DP  RH WIND       PRES   REMARKS
FERGUS FALLS   SUNNY     27  19  74 NE12G17   30.02R WCI  16
WHEATON        CLOUDY    28  23  80 N17       30.01S WCI  16
MORRIS         PTSUNNY   28  23  80 N21       29.95S WCI  15
ALEXANDRIA     PTSUNNY   27  23  85 N9        29.95R WCI  18
ELBOW LAKE     FAIR      27  21  80 NE13      29.98R WCI  16
WADENA         CLOUDY    21  19  93 N14       29.96R WCI   8
GLENWOOD       MOSUNNY   27  25  93 N13       29.95R WCI  16
APPLETON       CLOUDY    30  25  80 N13       29.97R WCI  20
BENSON         PTSUNNY   32  25  74 NE8       29.97S WCI  25
ORTONVILLE       N/A     28  25  86 N17       29.98R WCI  16
MADISON        CLOUDY    34  30  86 N15       29.97R WCI  24
WILLMAR        FAIR      30  27  86 NE10      29.96S WCI  21
$$
MNZ033>034-036-042>043-049>051-058-059-231600-
   Central Minnesota

CITY           SKY/WX    TMP DP  RH WIND       PRES   REMARKS
ST CLOUD       CLOUDY    27  23  85 N10       29.94R WCI  17
SAUK CENTRE    CLOUDY    26  22  84 N10       29.95R WCI  17
PAYNESVILLE    CLOUDY    27  24  89 N7        29.95R WCI  20
AITKIN         CLOUDY    25  18  74 N14       29.95S WCI  13
PINE RIVER     CLOUDY    25  19  80 N10       30.00S WCI  15
BRAINERD       CLOUDY    23  19  85 N16       29.96R WCI  10
STAPLES        CLOUDY    21  19  93 N15       29.96R WCI   8
LONG PRAIRIE   CLOUDY    27  23  86 NW8       29.95R WCI  18
LITTLE FALLS   CLOUDY    27  21  80 N8        29.96R WCI  18
LITCHFIELD     MOSUNNY   30  25  80 N10       29.94S WCI  21
BUFFALO        MOSUNNY   29  24  80 N8        29.95R WCI  21
MAPLE LAKE     PTSUNNY   30  26  86 N8        29.95R WCI  22
HUTCHINSON     SUNNY     31  27  82 N8        29.94S WCI  24
$$
MNZ037-044-045-052-053-231600-
   East Central Minnesota

CITY           SKY/WX    TMP DP  RH WIND       PRES   REMARKS
PRINCETON      SUNNY     28  23  80 N9        29.94S WCI  20
MORA           CLOUDY    27  23  86 N3        29.96R
CAMBRIDGE      SUNNY     30  21  69 N13       29.92S WCI  20
RUSH CITY      MOSUNNY   28  23  80 N8        29.94S WCI  20
MOOSE LAKE     CLOUDY    27  21  80 N9        29.94R WCI  17
HINCKLEY       CLOUDY    27  23  86 N13       29.95S WCI  16
CLOQUET        CLOUDY    25  19  80 NW12      29.93S WCI  14
MCGREGOR       CLOUDY    25  21  86 N8        29.96R WCI  16
$$
MNZ071>073-080-081-089-090-097-098-231600-
   Southwest Minnesota

CITY           SKY/WX    TMP DP  RH WIND       PRES   REMARKS
MONTEVIDEO     CLOUDY    30  27  86 E8        29.98R WCI  23
GRANITE FALLS  CLOUDY    32  27  82 N9        29.98R WCI  24
CANBY          CLOUDY    31  29  90 N8        29.98R WCI  24
MARSHALL       CLOUDY    30  27  88 N12       29.95S WCI  20
REDWOOD FALLS  MOSUNNY   33  24  69 N8        29.94R WCI  26
OLIVIA         CLOUDY    32  28  86 N10       29.93R WCI  24
PIPESTONE      PTSUNNY   30  25  80 NE13G20   29.88S WCI  20
WINDOM         CLOUDY    30  27  86 N14       29.89S WCI  20
WORTHINGTON    CLOUDY    30  26  85 NE20      29.88S WCI  17
JACKSON          N/A     32  28  86 NE15      29.89R WCI  22
TRACY          MOSUNNY   31  28  89 N15       29.92F WCI  20
SLAYTON        CLOUDY    29  26  88 N15G23    29.89F WCI  17
$$
MNZ065>067-074>077-082>085-091>093-231600-
   South Central Minnesota

CITY           SKY/WX    TMP DP  RH WIND       PRES   REMARKS
MANKATO          N/A     32  27  81 NE16      29.90S WCI  21
NEW ULM        CLOUDY    30  25  80 NE10      29.92R WCI  21
ST JAMES       CLOUDY    30  28  93 N12       29.92R WCI  21
FAIRMONT       CLOUDY    32  29  88 N9        29.91R WCI  24
GLENCOE        MOSUNNY   32  29  87 N9        29.93R WCI  24
FARIBAULT      CLOUDY    34  28  80 N9        29.91R WCI  26
OWATONNA       CLOUDY    34  28  80 N9        29.89R WCI  26
WASECA         CLOUDY    34  30  86 NE15      29.91R WCI  24
ALBERT LEA     CLOUDY    34  30  86 NE9       29.87S WCI  26
$$
MNZ078>079-086>088-094>096-231600-
   Southeast Minnesota

CITY           SKY/WX    TMP DP  RH WIND       PRES   REMARKS
ROCHESTER      CLOUDY    34  32  92 NE14      29.87R WCI  25
RED WING       CLOUDY    36  28  75 N3        29.90S
STANTON        CLOUDY    34  29  83 N10       29.90R WCI  26
DODGE CENTER   CLOUDY    34  30  86 N9        29.88R WCI  26
WINONA         CLOUDY    37  32  81 N3        29.90R
AUSTIN         CLOUDY    34  30  86 NE9       29.86S WCI  26
PRESTON        CLOUDY    34  31  87 N12       29.86S WCI  26
$$
ABBREVIATIONS USED IN REMARKS
   TC - TEMPERATURES IN CELSIUS
  WCI - WIND CHILL INDEX
   HX - HEAT INDEX
  VSB - VISIBILITY
$$




USA.gov is the U.S. government's official web portal to all federal, state and local government web resources and services.